Theta_e
354 343 337 327 324 326 337 339 339 340 340 339 338 338 335 331 332 333 333 333 329 326 331 335 336 332 329 330 333 335 340 342 340 348 347 346 345 344 343 341 338 336 333
354 343 338 329 323 323 334 338 339 339 339 339 338 339 335 332 333 334 334 334 329 328 333 335 334 330 333 337 339 342 345 345 349 352 349 345 344 342 340 337 334 332 331
347 343 339 332 324 323 326 337 337 338 338 338 339 337 334 332 333 333 335 335 330 328 333 335 331 332 337 340 341 346 345 346 345 345 343 342 341 340 337 334 332 331 330
344 343 341 334 326 323 324 329 334 337 337 337 336 335 332 331 331 330 335 334 327 327 333 333 329 334 340 340 341 344 347 347 348 344 342 339 338 336 334 332 331 329 328
348 343 342 337 330 324 324 325 327 333 334 334 332 330 330 330 329 333 334 328 325 327 333 332 330 338 340 341 343 346 348 348 346 342 337 332 332 334 331 330 329 328 328
345 343 343 339 335 327 323 324 325 330 329 328 329 329 329 329 334 334 330 323 325 327 332 327 333 339 341 342 345 347 348 347 341 337 331 330 329 332 331 329 329 328 327
345 344 342 341 338 333 325 324 324 327 326 325 326 327 329 334 335 333 325 323 324 327 331 326 336 340 342 346 347 347 347 345 338 332 329 326 329 330 330 329 328 326 327
348 344 342 341 340 337 332 324 324 325 325 325 325 327 331 333 333 329 323 323 323 328 330 327 338 340 343 345 348 347 346 342 334 329 328 327 329 330 329 328 327 326 325
351 347 344 342 341 340 337 329 325 324 326 325 325 327 330 330 331 327 324 323 324 329 329 328 337 340 342 346 347 346 345 339 332 329 327 328 330 329 328 327 326 326 325
353 350 347 346 343 342 340 337 329 325 326 326 325 327 330 329 329 328 327 323 324 329 329 328 337 339 341 343 346 347 345 339 332 329 327 330 330 328 328 327 326 325 324
354 353 350 346 346 345 343 340 337 329 326 328 327 328 330 330 330 331 329 324 324 328 331 328 335 338 341 343 346 347 346 339 332 328 327 330 329 328 327 326 325 324 324
355 354 352 349 347 348 348 344 341 338 329 329 329 329 330 331 331 332 330 325 326 328 332 329 334 337 340 343 347 348 345 340 332 329 328 329 328 328 327 326 325 324 323
355 355 353 352 349 346 348 347 346 343 338 332 331 330 331 333 332 333 329 326 325 326 330 331 331 337 339 343 345 346 345 341 332 329 330 327 328 328 327 326 325 323 323
349 353 353 353 351 352 351 348 347 348 345 338 333 332 332 333 334 333 330 326 326 325 328 330 329 335 339 343 345 346 344 339 332 329 331 325 327 328 327 326 325 323 323
335 340 348 351 351 349 347 347 346 348 346 343 336 335 335 335 334 334 332 328 328 326 327 329 331 331 337 342 344 346 345 342 332 329 330 325 325 328 328 326 325 323 323
327 331 340 348 351 349 347 346 344 345 346 344 342 337 336 335 335 335 334 331 329 328 326 333 332 328 333 342 345 345 345 343 335 329 329 326 324 326 327 326 325 323 323
328 332 339 345 350 350 347 345 345 343 341 342 343 341 339 336 335 336 336 334 331 331 333 336 338 337 329 337 344 344 345 343 335 329 329 326 323 324 325 325 325 324 325
325 334 339 346 348 349 348 344 342 344 342 341 341 342 340 339 338 337 337 336 333 337 338 338 339 336 333 338 343 343 343 342 335 330 329 327 324 323 326 324 323 323 325
324 327 332 340 344 346 346 344 345 346 345 344 343 341 340 335 338 340 339 337 336 334 340 340 339 338 334 340 342 341 343 341 335 331 329 327 325 323 324 324 321 321 325
333 333 334 338 342 345 345 344 344 343 343 344 344 344 343 341 340 339 338 340 338 336 337 341 340 339 339 342 340 339 340 338 334 332 330 328 326 323 323 323 322 321 324
320 336 339 342 342 344 344 343 343 343 342 342 341 343 343 342 341 341 340 340 340 339 335 337 340 340 342 341 339 336 335 334 333 332 331 329 327 324 324 324 322 321 325
316 316 327 339 344 346 345 344 343 343 343 342 342 341 339 339 341 341 340 339 341 340 338 337 340 343 343 340 338 335 335 334 333 333 332 330 328 326 324 324 323 321 323
316 317 317 330 337 342 344 345 345 346 345 343 339 338 335 337 339 343 341 341 340 340 341 337 340 343 344 340 339 337 333 338 330 330 331 330 329 327 326 324 322 320 322
318 320 319 319 320 321 323 333 341 341 342 336 337 337 338 340 339 343 344 343 342 340 340 340 341 340 344 341 337 337 334 332 333 332 328 328 328 327 325 324 321 319 319
319 320 321 322 322 323 323 324 324 326 327 328 329 333 333 334 339 340 340 343 343 341 340 339 340 341 341 342 340 335 331 330 329 330 331 325 323 323 323 322 321 319 318
318 318 318 319 320 320 319 321 321 323 323 327 327 329 330 333 336 338 337 338 342 342 340 340 341 342 341 342 341 340 338 330 325 324 326 322 323 321 322 321 320 318 317
Wind_Speed
15 24 22 20 22 24 24 25 24 27 27 27 27 26 24 22 19 18 17 15 15 16 15 14 12 11 11 11 11 10 10 11 11 13 14 13 12 11 9 10 13 13 12
22 26 24 21 21 22 24 24 24 25 26 26 26 25 23 21 19 16 15 14 12 13 14 12 11 11 11 11 10 9 8 10 13 16 17 15 11 9 11 13 13 13 13
25 27 24 22 20 21 24 24 24 24 25 26 26 24 22 20 18 15 13 13 12 12 12 11 11 10 11 9 9 9 12 13 13 14 13 13 13 12 13 13 13 13 14
26 26 24 21 20 21 22 23 23 23 23 24 24 23 22 20 17 15 13 11 11 11 10 10 10 10 9 8 8 7 12 11 13 12 12 12 13 12 13 13 13 13 13
27 25 24 22 19 19 22 22 22 23 23 23 24 23 21 19 16 15 12 10 10 10 9 9 9 9 8 6 7 10 13 11 12 10 11 11 11 12 12 12 12 12 12
27 25 24 23 20 19 20 21 22 23 23 23 23 22 20 18 15 13 12 10 9 9 8 8 8 8 7 6 7 11 12 12 11 10 10 11 11 11 11 12 11 11 12
25 24 23 23 22 21 20 21 22 23 24 23 22 20 18 16 14 13 11 11 10 9 8 8 8 8 7 6 7 10 11 10 10 10 10 10 12 11 10 11 11 10 11
22 21 22 23 23 22 21 21 23 24 24 23 22 21 18 16 14 13 12 11 10 9 8 9 7 7 7 7 10 11 10 9 10 11 10 10 11 10 10 11 11 11 11
18 19 19 21 21 22 21 21 22 23 24 23 22 21 18 15 14 13 11 10 9 9 8 9 7 7 7 8 10 10 8 9 9 10 10 10 9 10 9 11 10 10 12
15 18 19 19 20 22 22 20 20 21 23 22 22 20 18 16 14 13 11 10 9 8 7 8 7 7 7 6 8 8 7 9 8 9 10 9 9 10 9 10 10 11 12
16 19 20 21 20 20 22 22 20 20 21 21 21 20 18 17 15 13 12 10 9 8 7 7 7 7 6 7 8 9 8 9 8 9 10 9 8 10 9 9 11 12 11
16 20 21 21 21 20 19 22 23 22 21 23 23 21 20 17 15 13 12 10 9 8 6 6 7 7 6 5 10 11 10 10 9 10 10 10 9 9 9 10 11 11 11
19 19 22 23 22 21 17 20 21 22 22 22 23 22 21 19 16 15 13 12 10 10 8 7 7 8 8 9 12 13 12 12 11 11 10 9 8 8 9 9 11 11 11
17 20 22 22 22 19 17 18 22 21 22 23 24 23 23 21 19 17 15 13 12 11 10 9 7 7 7 10 12 13 14 13 12 12 11 8 8 8 9 9 11 10 10
17 20 22 23 24 22 20 21 21 19 24 25 24 24 22 22 20 18 16 15 14 12 12 11 8 7 7 9 13 16 15 14 14 13 12 8 7 8 8 8 9 9 10
18 19 22 23 23 22 22 24 23 22 21 25 23 24 23 22 21 20 18 17 16 14 13 12 11 7 8 9 15 19 17 17 16 15 12 9 7 6 7 7 7 7 9
19 16 17 18 19 22 23 24 24 23 21 21 22 22 23 23 22 22 20 19 17 15 14 14 12 10 10 10 15 20 20 20 19 16 13 11 9 6 5 5 5 6 8
18 19 18 19 20 21 23 24 23 21 19 19 19 21 20 21 22 23 23 22 19 17 16 15 13 11 10 13 15 19 20 21 19 17 15 13 11 9 7 4 3 5 5
23 23 23 22 22 22 21 23 20 18 17 17 17 19 22 20 20 23 26 26 23 22 19 17 15 14 14 16 18 18 20 21 20 18 16 14 12 11 8 5 2 2 2
24 24 25 25 24 23 23 22 20 18 18 20 20 21 22 22 21 23 24 27 26 25 23 18 17 15 17 20 17 16 18 19 19 19 17 15 14 13 9 7 5 2 2
19 22 24 24 25 23 23 22 23 23 22 22 22 23 25 25 26 23 25 24 25 28 28 23 18 16 15 19 17 9 10 14 17 18 18 17 16 14 11 10 8 5 5
25 23 24 24 23 23 23 21 20 19 22 26 23 23 24 26 28 29 27 26 25 25 27 25 20 16 15 25 9 10 3 4 15 20 19 19 17 15 13 13 10 7 8
12 18 20 20 19 18 19 20 17 18 13 12 20 24 25 26 26 27 31 29 28 22 26 30 24 24 20 26 20 8 2 4 4 8 19 19 18 18 16 15 12 9 9
8 6 9 10 12 14 15 17 20 22 21 25 24 22 23 22 23 24 27 29 30 29 23 28 29 29 27 22 20 14 7 7 3 2 6 15 17 16 16 17 14 11 10
12 13 13 12 11 7 4 5 11 18 21 23 25 25 25 21 22 23 22 26 29 30 29 32 34 32 34 26 27 17 10 7 6 3 3 3 10 12 15 17 15 13 11
8 8 8 7 7 6 4 2 3 8 11 14 18 21 23 24 23 23 22 23 27 30 31 31 27 30 32 35 33 26 22 10 8 5 2 2 5 7 15 15 16 15 13
Wind_Direction
157 161 163 162 158 155 150 142 138 142 149 146 147 147 148 147 143 138 136 136 132 131 126 118 110 101 96 95 98 100 102 106 105 98 94 88 86 83 78 74 68 68 65
161 165 166 164 161 159 157 150 146 144 147 153 152 152 152 150 146 143 139 137 134 129 122 116 105 99 96 97 99 100 103 116 112 101 96 90 80 75 70 72 72 71 66
162 165 168 167 164 164 163 161 156 155 153 155 157 158 158 154 151 147 145 141 137 130 120 114 103 99 96 96 98 104 100 112 113 100 95 88 80 76 75 71 68 65 62
166 168 170 171 169 169 166 165 164 163 162 163 164 164 162 158 155 152 152 147 141 133 123 113 104 98 96 93 97 116 115 115 113 104 98 90 83 76 72 68 62 58 58
169 173 175 174 175 174 171 169 169 169 168 168 168 166 165 163 161 157 157 154 145 135 121 113 108 99 88 89 100 108 135 132 119 107 93 84 80 77 73 68 57 56 56
169 176 180 180 181 181 178 174 174 172 173 172 171 170 168 167 165 162 161 156 148 137 124 115 105 92 89 99 121 124 134 132 118 103 94 85 77 79 72 67 60 53 54
177 180 183 186 188 186 184 182 179 178 177 177 176 175 173 173 169 168 168 161 156 144 130 124 113 94 104 110 139 137 135 132 118 108 95 81 81 78 73 69 62 55 54
183 184 188 191 194 194 192 189 186 184 184 182 182 180 179 180 177 177 176 171 162 152 140 129 121 104 108 107 133 140 140 138 122 107 94 81 82 79 70 71 62 52 44
193 192 195 197 200 203 201 198 194 192 191 189 188 188 186 188 186 186 184 181 171 159 148 136 131 115 114 121 134 144 142 140 126 110 96 92 89 81 70 68 60 49 43
203 204 203 205 205 207 207 206 202 200 198 195 194 195 194 195 195 193 190 190 185 173 162 147 144 131 131 147 159 163 156 147 130 111 98 97 93 84 70 65 59 50 46
208 209 210 210 212 212 212 210 208 208 206 203 202 200 199 201 201 202 202 200 195 191 176 162 157 146 156 165 188 188 178 160 145 129 111 109 99 86 74 65 58 51 47
213 211 213 215 213 214 215 213 211 209 210 209 207 205 204 206 209 210 212 212 212 214 196 181 174 169 173 187 177 197 190 171 160 141 123 114 108 92 80 66 60 55 49
216 215 216 218 218 217 217 220 217 213 213 215 214 211 211 210 212 216 216 218 219 221 218 207 200 192 186 208 201 202 196 187 173 149 132 118 110 101 90 74 67 57 55
213 220 221 219 216 211 218 220 218 217 216 218 218 218 217 215 217 220 221 222 227 227 231 228 216 205 190 210 218 216 206 197 176 161 144 132 118 115 95 85 71 61 51
221 223 226 222 220 219 223 222 219 218 219 224 221 223 224 226 226 227 226 226 230 234 235 238 236 226 215 214 225 219 210 205 189 171 162 149 135 125 111 91 74 63 48
222 225 226 226 227 225 224 223 226 225 228 231 228 229 231 233 236 238 238 237 236 238 242 247 248 245 240 240 230 222 214 207 198 181 173 164 151 139 125 105 83 71 51
215 219 219 218 224 224 227 227 231 236 239 240 233 236 238 240 241 244 245 246 246 245 245 250 254 256 253 256 231 220 210 204 197 188 186 179 170 167 139 128 101 69 52
204 207 206 205 210 219 224 228 232 237 241 242 240 241 241 249 248 249 250 250 253 251 249 252 253 247 240 250 222 209 207 200 199 195 196 189 185 183 167 149 100 64 57
193 196 202 204 210 214 221 228 232 238 241 247 246 243 242 248 255 256 255 254 253 254 253 253 253 245 239 233 216 207 202 199 202 200 202 198 198 199 185 174 181 67 77
208 204 208 210 212 215 220 227 232 238 245 247 252 253 250 245 249 254 260 255 251 252 252 251 248 255 244 219 196 199 200 202 205 208 209 206 210 206 203 202 209 201 196
215 224 218 217 217 216 215 222 229 231 237 242 247 251 254 254 252 252 254 261 253 249 248 252 247 245 209 197 169 178 197 215 215 218 218 217 219 215 211 214 220 209 193
212 219 225 223 222 221 222 225 227 238 248 251 249 250 253 254 258 253 249 256 258 248 247 244 236 213 199 189 164 129 167 220 229 224 224 223 225 223 218 214 216 203 208
216 221 223 219 225 228 230 232 234 240 245 252 251 249 252 253 256 256 249 251 249 254 250 240 229 218 188 192 185 156 142 208 176 215 225 223 229 226 222 214 208 205 203
107 145 188 209 222 228 229 235 243 247 248 257 263 267 265 263 259 256 257 253 251 250 252 255 235 224 214 192 193 219 203 158 166 172 219 218 223 227 217 204 203 200 199
98 107 109 112 111 111 128 230 253 261 265 274 275 275 275 270 262 253 252 256 252 248 242 254 244 228 225 213 195 191 188 177 157 136 176 177 204 208 201 198 202 199 198
107 111 114 113 112 98 137 161 271 279 289 283 281 280 278 271 259 250 248 253 254 251 240 232 240 231 234 228 220 205 194 180 189 160 129 143 166 175 190 198 200 196 197